Flag for Germany Weather past 2 weeks in Marl, North Rhine-Westphalia, Germany

Now
45 °F

Partly sunny.


Feels Like: 40 °F
Forecast: 38 / 60 °F
Wind: 9 mph from Northwest

Location: Dortmund / Wickede


UV Index: 0 (Low)

Visibility: N/A


Pressure: 29.92 "Hg

Humidity: 76%

Dew point: 37 °F

Location of MarlLocation

Historic Weather in Marl

°F

Marl temperature yesterday

Maximum temperature yesterday: 61 °F (at 3:20 PM)
Minimum temperature yesterday: 41 °F (at 5:50 AM)
Average temperature yesterday: 54 °F

Past Weeks' High & Low Weather Summary

 TemperatureHumidityPressure
High72 °F (Apr 3, 12:50 PM)94% (Apr 5, 5:20 AM)30.45 "Hg (Apr 5, 5:20 AM)
Low30 °F (Apr 16, 5:20 AM)29% (Apr 17, 3:50 PM)29.62 "Hg (Apr 3, 9:50 AM)
Average53 °F66%30.05 "Hg
* Reported Apr 3 9:20 AM — Apr 18 9:20 AM, Marl, Weather by CustomWeather, © 2014

Note: Actual official high and low records may vary slightly from our data, if they occured in-between our weather recording intervals... More about our weather records

Advertising

Historic Weather Conditions — Data for Previous 24 hours

 ConditionsComfort  
Time TempWeatherWind HumidityBarometerVisibility
9:20 AM
Apr 18
43 °FPartly sunny.8 mph81%29.92 "HgN/A
8:50 AM43 °FPartly sunny.8 mph87%29.92 "HgN/A
8:20 AM43 °FScattered clouds.7 mph81%29.92 "HgN/A
7:50 AM41 °FScattered clouds.8 mph87%29.92 "HgN/A
7:20 AM41 °FPassing clouds.6 mph87%29.89 "HgN/A
6:50 AM41 °FPassing clouds.8 mph87%29.89 "HgN/A
6:20 AM41 °FPassing clouds.7 mph87%29.89 "HgN/A
5:50 AM43 °FPassing clouds.9 mph87%29.89 "HgN/A
5:20 AM43 °FPassing clouds.9 mph87%29.89 "HgN/A
9:50 PM
Apr 17
55 °FSprinkles. Passing clouds.15 mph41%29.92 "HgN/A
9:20 PM57 °FSunny.9 mph33%29.92 "Hg10 mi
8:50 PM55 °FSunny.7 mph41%29.92 "Hg10 mi
8:20 PM57 °FSunny.9 mph36%29.95 "Hg10 mi
7:50 PM59 °FSunny.10 mph34%29.95 "Hg10 mi
6:50 PM59 °FSunny.10 mph39%29.95 "Hg10 mi
6:20 PM59 °FSunny.12 mph34%29.98 "Hg10 mi
5:50 PM59 °FPassing clouds.13 mph36%29.98 "HgN/A
5:20 PM61 °FPassing clouds.12 mph29%29.98 "HgN/A
4:50 PM61 °FPassing clouds.13 mph29%30.01 "HgN/A
4:20 PM61 °FPassing clouds.13 mph29%30.04 "HgN/A
3:50 PM61 °FPassing clouds.14 mph29%30.04 "HgN/A
3:20 PM61 °FPassing clouds.12 mph31%30.07 "HgN/A
2:50 PM59 °FPassing clouds.12 mph31%30.09 "HgN/A
2:20 PM59 °FPassing clouds.10 mph34%30.09 "HgN/A
1:50 PM59 °FPassing clouds.9 mph31%30.12 "HgN/A
1:20 PM57 °FPassing clouds.9 mph36%30.12 "HgN/A
12:50 PM57 °FPassing clouds.9 mph36%30.15 "HgN/A
12:20 PM57 °FSunny.12 mph39%30.18 "Hg10 mi
11:50 AM55 °FSunny.10 mph41%30.18 "Hg10 mi
11:20 AM54 °FSunny.10 mph35%30.21 "Hg10 mi
10:50 AM54 °FSunny.13 mph35%30.21 "Hg10 mi
10:20 AM54 °FSunny.14 mph38%30.24 "Hg10 mi
Weather by CustomWeather, © 2014

See weather overview